,,PA_Meas_PMT16A,,PR_Meas_QMR101_102,,RH_Meas_QMH101,,SR_Meas_QMS101,,TA_Meas_QMH101,,GenWind,,GenWind,
time,status,PA,status,PR,status,RH,status,SR,status,TA,status,DirAvg,status,SpdAvg,
2010-01-13, 00:00:04,VALID,920.891,VALID,0,VALID,97.8847,VALID,0,VALID,19.2514,VALID,124,VALID,0,
2010-01-13, 00:01:04,VALID,920.879,VALID,0,VALID,97.8694,VALID,0,VALID,19.2723,VALID,124,VALID,0,
2010-01-13, 00:02:04,VALID,920.867,VALID,0,VALID,97.877,VALID,0,VALID,19.2514,VALID,124,VALID,0,
2010-01-13, 00:03:04,VALID,920.882,VALID,0,VALID,97.8923,VALID,0,VALID,19.2514,VALID,124,VALID,0,
2010-01-13, 00:04:04,VALID,920.873,VALID,0,VALID,97.8847,VALID,0,VALID,19.2514,VALID,124,VALID,0,
2010-01-13, 00:05:04,VALID,920.89,VALID,0,VALID,97.8923,VALID,0,VALID,19.2514,VALID,124,VALID,0,
2010-01-13, 00:06:04,VALID,920.846,VALID,0,VALID,97.877,VALID,0,VALID,19.2514,VALID,124,VALID,0,
2010-01-13, 00:07:04,VALID,920.797,VALID,0.2,VALID,97.8923,VALID,0,VALID,19.2709,VALID,124,VALID,0,
2010-01-13, 00:08:04,VALID,920.823,VALID,0,VALID,97.877,VALID,0,VALID,19.2904,VALID,124,VALID,0.0441406,
2010-01-13, 00:09:04,VALID,920.806,VALID,0,VALID,97.8694,VALID,0,VALID,19.3113,VALID,124,VALID,0.213281,
2010-01-13, 00:10:04,VALID,920.826,VALID,0,VALID,97.8847,VALID,0,VALID,19.2904,VALID,124,VALID,0,
2010-01-13, 00:11:04,VALID,920.796,VALID,0,VALID,97.8999,VALID,0,VALID,19.3308,VALID,124,VALID,0,
2010-01-13, 00:12:04,VALID,920.78,VALID,0,VALID,97.877,VALID,0,VALID,19.3294,VALID,124,VALID,0,
2010-01-13, 00:13:04,VALID,920.784,VALID,0,VALID,97.8923,VALID,0,VALID,19.3503,VALID,124,VALID,0,
2010-01-13, 00:14:04,VALID,920.772,VALID,0,VALID,97.877,VALID,0,VALID,19.3294,VALID,124,VALID,0,
2010-01-13, 00:15:04,VALID,920.769,VALID,0,VALID,97.8923,VALID,0,VALID,19.3503,VALID,124,VALID,0.0902344,
2010-01-13, 00:16:04,VALID,920.764,VALID,0,VALID,97.8618,VALID,0,VALID,19.3099,VALID,124,VALID,0.24375,
2010-01-13, 00:17:04,VALID,920.795,VALID,0.2,VALID,97.8694,VALID,0,VALID,19.3308,VALID,124,VALID,0.185937,
2010-01-13, 00:18:04,VALID,920.794,VALID,0,VALID,97.8694,VALID,0,VALID,19.3113,VALID,124,VALID,0,
2010-01-13, 00:19:04,VALID,920.779,VALID,0,VALID,97.8999,VALID,0,VALID,19.3099,VALID,124,VALID,0,
2010-01-13, 00:20:04,VALID,920.787,VALID,0,VALID,97.8923,VALID,0,VALID,19.3294,VALID,124,VALID,0,
2010-01-13, 00:21:04,VALID,920.759,VALID,0,VALID,97.8847,VALID,0,VALID,19.3294,VALID,124,VALID,0,
2010-01-13, 00:22:04,VALID,920.753,VALID,0,VALID,97.8694,VALID,0,VALID,19.3503,VALID,124,VALID,0,
2010-01-13, 00:23:04,VALID,920.714,VALID,0,VALID,97.8694,VALID,0,VALID,19.3503,VALID,124,VALID,0,
2010-01-13, 00:24:04,VALID,920.717,VALID,0,VALID,97.8618,VALID,0,VALID,19.3099,VALID,124,VALID,0,
2010-01-13, 00:25:04,VALID,920.718,VALID,0,VALID,97.8694,VALID,0,VALID,19.3294,VALID,124,VALID,0,
2010-01-13, 00:26:04,VALID,920.727,VALID,0,VALID,97.877,VALID,0,VALID,19.3503,VALID,124,VALID,0,
2010-01-13, 00:27:04,VALID,920.677,VALID,0.2,VALID,97.877,VALID,0,VALID,19.3294,VALID,124,VALID,0.1,
2010-01-13, 00:28:04,VALID,920.684,VALID,0,VALID,97.877,VALID,0,VALID,19.3698,VALID,124,VALID,0,
2010-01-13, 00:29:04,VALID,920.685,VALID,0,VALID,97.8923,VALID,0,VALID,19.3698,VALID,124,VALID,0,
2010-01-13, 00:30:04,VALID,920.656,VALID,0,VALID,97.8847,VALID,0,VALID,19.3684,VALID,124,VALID,0,
2010-01-13, 00:31:04,VALID,920.64,VALID,0,VALID,97.877,VALID,0,VALID,19.3893,VALID,124,VALID,0,
2010-01-13, 00:32:04,VALID,920.624,VALID,0.2,VALID,97.877,VALID,0,VALID,19.3879,VALID,124,VALID,0,
2010-01-13, 00:33:04,VALID,920.605,VALID,0,VALID,97.8694,VALID,0,VALID,19.3893,VALID,124,VALID,0,
2010-01-13, 00:34:04,VALID,920.59,VALID,0,VALID,97.877,VALID,0,VALID,19.3684,VALID,124,VALID,0,
2010-01-13, 00:35:04,VALID,920.556,VALID,0,VALID,97.8618,VALID,0,VALID,19.3879,VALID,124,VALID,0,
2010-01-13, 00:36:04,VALID,920.532,VALID,0,VALID,97.877,VALID,0,VALID,19.4088,VALID,124,VALID,0.346484,
2010-01-13, 00:37:04,VALID,920.518,VALID,0,VALID,97.8694,VALID,0,VALID,19.4088,VALID,124,VALID,0.502734,
2010-01-13, 00:38:04,VALID,920.499,VALID,0,VALID,97.8542,VALID,0,VALID,19.3698,VALID,124,VALID,0.614062,
2010-01-13, 00:39:04,VALID,920.458,VALID,0,VALID,97.8618,VALID,0,VALID,19.3099,VALID,124,VALID,0.589063,
2010-01-13, 00:40:04,VALID,920.446,VALID,0.2,VALID,97.877,VALID,0,VALID,19.3113,VALID,124,VALID,0.211328,
2010-01-13, 00:41:04,VALID,920.451,VALID,0,VALID,97.8847,VALID,0,VALID,19.2723,VALID,124,VALID,0,
2010-01-13, 00:42:04,VALID,920.445,VALID,0,VALID,97.877,VALID,0.107441,VALID,19.2918,VALID,124,VALID,0,
2010-01-13, 00:43:04,VALID,920.43,VALID,0,VALID,97.877,VALID,0,VALID,19.2319,VALID,124,VALID,0,
2010-01-13, 00:44:05,VALID,920.411,VALID,0,VALID,97.877,VALID,0,VALID,19.2528,VALID,124,VALID,0,
2010-01-13, 00:45:05,VALID,920.387,VALID,0,VALID,97.8618,VALID,0,VALID,19.2528,VALID,124,VALID,0,
2010-01-13, 00:46:05,VALID,920.397,VALID,0,VALID,97.8694,VALID,0.107441,VALID,19.2319,VALID,124,VALID,0,
2010-01-13, 00:47:05,VALID,920.384,VALID,0,VALID,97.8999,VALID,0,VALID,19.1929,VALID,124,VALID,0,
2010-01-13, 00:48:05,VALID,920.367,VALID,0,VALID,97.877,VALID,0,VALID,19.1929,VALID,124,VALID,0,
2010-01-13, 00:49:05,VALID,920.353,VALID,0.2,VALID,97.8847,VALID,0,VALID,19.1734,VALID,124,VALID,0,
2010-01-13, 00:50:05,VALID,920.332,VALID,0,VALID,97.8999,VALID,0,VALID,19.1749,VALID,124,VALID,0,
2010-01-13, 00:51:05,VALID,920.324,VALID,0,VALID,97.8999,VALID,0.107441,VALID,19.172,VALID,124,VALID,0,
2010-01-13, 00:52:05,VALID,920.311,VALID,0,VALID,97.8923,VALID,0.107441,VALID,19.1929,VALID,124,VALID,0,
2010-01-13, 00:53:05,VALID,920.31,VALID,0,VALID,97.8999,VALID,0.107441,VALID,19.172,VALID,124,VALID,0,
2010-01-13, 00:54:05,VALID,920.305,VALID,0,VALID,97.8923,VALID,0.107441,VALID,19.172,VALID,124,VALID,0,
2010-01-13, 00:55:05,VALID,920.261,VALID,0,VALID,97.9304,VALID,0.107441,VALID,19.1525,VALID,124,VALID,0.506641,
2010-01-13, 00:56:05,VALID,920.253,VALID,0,VALID,97.9152,VALID,0.107441,VALID,19.1734,VALID,124,VALID,0.437109,
2010-01-13, 00:57:05,VALID,920.253,VALID,0,VALID,97.8999,VALID,0.214882,VALID,19.172,VALID,124,VALID,0.535156,
2010-01-13, 00:58:05,VALID,920.214,VALID,0,VALID,97.9228,VALID,0.214882,VALID,19.172,VALID,124,VALID,0.528906,
2010-01-13, 00:59:05,VALID,920.165,VALID,0,VALID,97.9152,VALID,0.214882,VALID,19.1914,VALID,124,VALID,0.565625,
2010-01-13, 01:00:05,VALID,920.139,VALID,0,VALID,97.8923,VALID,0.107441,VALID,19.1525,VALID,124,VALID,0.561328,
2010-01-13, 01:01:05,VALID,920.091,VALID,0,VALID,97.8999,VALID,0.214882,VALID,19.1525,VALID,124,VALID,0.691016,
2010-01-13, 01:02:05,VALID,920.112,VALID,0.2,VALID,97.9152,VALID,0.107441,VALID,19.1525,VALID,124,VALID,0.7375,
2010-01-13, 01:03:05,VALID,920.086,VALID,0,VALID,97.8923,VALID,0.107441,VALID,19.172,VALID,124,VALID,0.719531,
2010-01-13, 01:04:05,VALID,920.096,VALID,0,VALID,97.9228,VALID,0.107441,VALID,19.172,VALID,124,VALID,0.473047,
2010-01-13, 01:05:05,VALID,920.038,VALID,0,VALID,97.9075,VALID,0.214882,VALID,19.1914,VALID,124,VALID,0.238672,
2010-01-13, 01:06:05,VALID,920.045,VALID,0,VALID,97.9075,VALID,0,VALID,19.1929,VALID,124,VALID,0.0625,
2010-01-13, 01:07:05,VALID,920.059,VALID,0,VALID,97.9152,VALID,0,VALID,19.1734,VALID,124,VALID,0,
2010-01-13, 01:08:05,VALID,920.038,VALID,0,VALID,97.9228,VALID,0,VALID,19.1929,VALID,124,VALID,0,
2010-01-13, 01:09:05,VALID,920.022,VALID,0,VALID,97.9075,VALID,0.107441,VALID,19.1929,VALID,124,VALID,0,
2010-01-13, 01:10:05,VALID,920.012,VALID,0,VALID,97.8999,VALID,0,VALID,19.1929,VALID,124,VALID,0,
2010-01-13, 01:11:05,VALID,920.009,VALID,0,VALID,97.9228,VALID,0,VALID,19.1929,VALID,124,VALID,0,
2010-01-13, 01:12:05,VALID,919.983,VALID,0,VALID,97.9152,VALID,0,VALID,19.2528,VALID,124,VALID,0,
2010-01-13, 01:13:05,VALID,919.972,VALID,0,VALID,97.9075,VALID,0,VALID,19.2124,VALID,124,VALID,0,
2010-01-13, 01:14:05,VALID,919.946,VALID,0,VALID,97.8847,VALID,0.107441,VALID,19.2319,VALID,124,VALID,0,
2010-01-13, 01:15:05,VALID,919.906,VALID,0,VALID,97.9152,VALID,0.107441,VALID,19.2514,VALID,124,VALID,0,
2010-01-13, 01:16:05,VALID,919.89,VALID,0,VALID,97.9075,VALID,0,VALID,19.2319,VALID,124,VALID,0,
2010-01-13, 01:17:05,VALID,919.858,VALID,0,VALID,97.9152,VALID,0,VALID,19.2319,VALID,124,VALID,0,
2010-01-13, 01:18:05,VALID,919.822,VALID,0,VALID,97.9075,VALID,0.107441,VALID,19.2319,VALID,124,VALID,0.269531,
2010-01-13, 01:19:05,VALID,919.823,VALID,0,VALID,97.9228,VALID,0,VALID,19.2319,VALID,124,VALID,0.314844,
2010-01-13, 01:20:05,VALID,919.84,VALID,0,VALID,97.8999,VALID,0.107441,VALID,19.2319,VALID,124,VALID,0.499609,
2010-01-13, 01:21:05,VALID,919.789,VALID,0,VALID,97.9152,VALID,0.107441,VALID,19.2124,VALID,124,VALID,0.496484,
2010-01-13, 01:22:05,VALID,919.805,VALID,0,VALID,97.8999,VALID,0.107441,VALID,19.2124,VALID,124,VALID,0.488672,
2010-01-13, 01:23:05,VALID,919.796,VALID,0,VALID,97.8999,VALID,0,VALID,19.1929,VALID,124,VALID,0.438672,
2010-01-13, 01:24:05,VALID,919.766,VALID,0,VALID,97.9152,VALID,0.107441,VALID,19.1929,VALID,124,VALID,0.56875,
2010-01-13, 01:25:05,VALID,919.777,VALID,0,VALID,97.9304,VALID,0.107441,VALID,19.1929,VALID,124,VALID,0.427734,
2010-01-13, 01:26:05,VALID,919.789,VALID,0,VALID,97.8999,VALID,0,VALID,19.1734,VALID,124,VALID,0.438672,
2010-01-13, 01:27:05,VALID,919.792,VALID,0,VALID,97.9456,VALID,0.107441,VALID,19.1929,VALID,124,VALID,0.252344,
2010-01-13, 01:28:05,VALID,919.77,VALID,0,VALID,97.9075,VALID,0.107441,VALID,19.1929,VALID,124,VALID,0.355078,
2010-01-13, 01:29:05,VALID,919.743,VALID,0,VALID,97.9152,VALID,0.107441,VALID,19.2124,VALID,124,VALID,0.0863281,
2010-01-13, 01:30:05,VALID,919.787,VALID,0,VALID,97.9152,VALID,0,VALID,19.1929,VALID,124,VALID,0,
2010-01-13, 01:31:05,VALID,919.74,VALID,0,VALID,97.9075,VALID,0.107441,VALID,19.2319,VALID,124,VALID,0.00195313,
2010-01-13, 01:32:05,VALID,919.742,VALID,0,VALID,97.8999,VALID,0,VALID,19.2124,VALID,124,VALID,0.144531,
2010-01-13, 01:33:05,VALID,919.734,VALID,0,VALID,97.9152,VALID,0,VALID,19.2124,VALID,124,VALID,0.201953,
2010-01-13, 01:34:05,VALID,919.718,VALID,0,VALID,97.9304,VALID,0,VALID,19.1929,VALID,124,VALID,0.295312,
2010-01-13, 01:35:05,VALID,919.71,VALID,0,VALID,97.9228,VALID,0.107441,VALID,19.2319,VALID,124,VALID,0.217187,
2010-01-13, 01:36:05,VALID,919.694,VALID,0,VALID,97.9228,VALID,0.107441,VALID,19.2124,VALID,124,VALID,0.401172,
2010-01-13, 01:37:05,VALID,919.711,VALID,0,VALID,97.9075,VALID,0.107441,VALID,19.2124,VALID,124,VALID,0.283203,
2010-01-13, 01:38:05,VALID,919.683,VALID,0,VALID,97.9228,VALID,0,VALID,19.1929,VALID,124,VALID,0.292188,
2010-01-13, 01:39:05,VALID,919.74,VALID,0,VALID,97.9304,VALID,0,VALID,19.1734,VALID,124,VALID,0.416406,
2010-01-13, 01:40:05,VALID,919.71,VALID,0,VALID,97.9304,VALID,0.107441,VALID,19.1734,VALID,124,VALID,0.401563,
2010-01-13, 01:41:05,VALID,919.723,VALID,0,VALID,97.8923,VALID,0.107441,VALID,19.1929,VALID,124,VALID,0.250781,
2010-01-13, 01:42:05,VALID,919.693,VALID,0,VALID,97.9228,VALID,0,VALID,19.1734,VALID,124,VALID,0.471484,
2010-01-13, 01:43:05,VALID,919.737,VALID,0,VALID,97.8923,VALID,0.107441,VALID,19.1539,VALID,124,VALID,0.251172,
2010-01-13, 01:44:05,VALID,919.719,VALID,0,VALID,97.9228,VALID,0,VALID,19.1539,VALID,124,VALID,0.273047,
2010-01-13, 01:45:05,VALID,919.734,VALID,0,VALID,97.9075,VALID,0,VALID,19.1344,VALID,124,VALID,0.387109,
2010-01-13, 01:46:05,VALID,919.723,VALID,0,VALID,97.9152,VALID,0,VALID,19.1344,VALID,124,VALID,0.328906,
2010-01-13, 01:47:05,VALID,919.727,VALID,0,VALID,97.9228,VALID,0,VALID,19.1344,VALID,124,VALID,0.476172,
2010-01-13, 01:48:05,VALID,919.725,VALID,0,VALID,97.9304,VALID,0.107441,VALID,19.1344,VALID,124,VALID,0.586719,
2010-01-13, 01:49:05,VALID,919.734,VALID,0,VALID,97.9304,VALID,0.107441,VALID,19.1344,VALID,124,VALID,0.522266,
2010-01-13, 01:50:05,VALID,919.768,VALID,0,VALID,97.938,VALID,0,VALID,19.1734,VALID,124,VALID,0.546484,
2010-01-13, 01:51:05,VALID,919.706,VALID,0,VALID,97.9304,VALID,0,VALID,19.172,VALID,124,VALID,0.389062,
2010-01-13, 01:52:05,VALID,919.734,VALID,0,VALID,97.9228,VALID,0,VALID,19.1944,VALID,206,VALID,0.682422,
2010-01-13, 01:53:05,VALID,919.711,VALID,0,VALID,97.9228,VALID,0,VALID,19.1734,VALID,207,VALID,0.36875,
2010-01-13, 01:54:05,VALID,919.701,VALID,0,VALID,97.938,VALID,0,VALID,19.1929,VALID,207,VALID,0.331641,
2010-01-13, 01:55:05,VALID,919.705,VALID,0,VALID,97.9152,VALID,0,VALID,19.2139,VALID,207,VALID,0.572266,
2010-01-13, 01:56:05,VALID,919.694,VALID,0,VALID,97.9304,VALID,0,VALID,19.2139,VALID,207,VALID,0.536328,
2010-01-13, 01:57:05,VALID,919.707,VALID,0,VALID,97.9075,VALID,0,VALID,19.1929,VALID,208,VALID,0.948828,
2010-01-13, 01:58:05,VALID,919.686,VALID,0,VALID,97.9152,VALID,0,VALID,19.2139,VALID,208,VALID,0.637891,
2010-01-13, 01:59:05,VALID,919.66,VALID,0,VALID,97.9228,VALID,0,VALID,19.2139,VALID,212,VALID,0.845312,
2010-01-13, 02:00:05,VALID,919.672,VALID,0,VALID,97.9228,VALID,0,VALID,19.1929,VALID,221,VALID,0.695703,
2010-01-13, 02:01:05,VALID,919.644,VALID,0,VALID,97.9304,VALID,0,VALID,19.1929,VALID,221,VALID,0.552344,
2010-01-13, 02:02:05,VALID,919.647,VALID,0,VALID,97.9304,VALID,0,VALID,19.2124,VALID,221,VALID,0.739062,
2010-01-13, 02:03:05,VALID,919.623,VALID,0,VALID,97.9152,VALID,0,VALID,19.2528,VALID,221,VALID,0.337109,
2010-01-13, 02:04:05,VALID,919.631,VALID,0,VALID,97.9152,VALID,0,VALID,19.2319,VALID,221,VALID,0.623047,
2010-01-13, 02:05:05,VALID,919.598,VALID,0,VALID,97.9075,VALID,0,VALID,19.2528,VALID,222,VALID,0.760938,
2010-01-13, 02:06:05,VALID,919.605,VALID,0,VALID,97.9304,VALID,0,VALID,19.2514,VALID,222,VALID,0.348828,
2010-01-13, 02:07:05,VALID,919.595,VALID,0,VALID,97.9304,VALID,0,VALID,19.2334,VALID,222,VALID,0.51875,
2010-01-13, 02:08:05,VALID,919.547,VALID,0,VALID,97.9152,VALID,0,VALID,19.2124,VALID,222,VALID,0.434375,
2010-01-13, 02:09:05,VALID,919.575,VALID,0,VALID,97.9152,VALID,0,VALID,19.2528,VALID,222,VALID,0.256641,
2010-01-13, 02:10:05,VALID,919.519,VALID,0,VALID,97.938,VALID,0.107441,VALID,19.2319,VALID,222,VALID,0.467578,
2010-01-13, 02:11:05,VALID,919.525,VALID,0,VALID,97.9152,VALID,0,VALID,19.2124,VALID,222,VALID,0.984766,
2010-01-13, 02:12:05,VALID,919.495,VALID,0,VALID,97.9152,VALID,0,VALID,19.2334,VALID,222,VALID,0.660937,
2010-01-13, 02:13:05,VALID,919.465,VALID,0,VALID,97.938,VALID,0,VALID,19.2124,VALID,222,VALID,0.426953,
2010-01-13, 02:14:05,VALID,919.476,VALID,0,VALID,97.9228,VALID,0,VALID,19.2124,VALID,222,VALID,0.513672,
2010-01-13, 02:15:05,VALID,919.473,VALID,0,VALID,97.9075,VALID,0,VALID,19.2139,VALID,222,VALID,0.207031,
2010-01-13, 02:16:05,VALID,919.445,VALID,0,VALID,97.9304,VALID,0,VALID,19.2124,VALID,222,VALID,0,
2010-01-13, 02:17:05,VALID,919.445,VALID,0,VALID,97.9228,VALID,0,VALID,19.2124,VALID,222,VALID,0.225781,
2010-01-13, 02:18:05,VALID,919.421,VALID,0,VALID,97.938,VALID,0.107441,VALID,19.2124,VALID,222,VALID,0.000390625,
2010-01-13, 02:19:05,VALID,919.401,VALID,0,VALID,97.9075,VALID,0,VALID,19.1929,VALID,222,VALID,0.399609,
2010-01-13, 02:20:05,VALID,919.414,VALID,0,VALID,97.9228,VALID,0,VALID,19.1734,VALID,222,VALID,0.557031,
2010-01-13, 02:21:05,VALID,919.386,VALID,0,VALID,97.938,VALID,0,VALID,19.1734,VALID,222,VALID,0.562109,
2010-01-13, 02:22:05,VALID,919.357,VALID,0.2,VALID,97.9228,VALID,0,VALID,19.1734,VALID,222,VALID,0.601563,
2010-01-13, 02:23:05,VALID,919.356,VALID,0,VALID,97.9228,VALID,0,VALID,19.1944,VALID,222,VALID,0.682813,
2010-01-13, 02:24:05,VALID,919.345,VALID,0,VALID,97.9456,VALID,0,VALID,19.1539,VALID,222,VALID,0.645703,
2010-01-13, 02:25:05,VALID,919.35,VALID,0,VALID,97.938,VALID,0,VALID,19.1929,VALID,222,VALID,0.750781,
2010-01-13, 02:26:05,VALID,919.333,VALID,0,VALID,97.9533,VALID,0,VALID,19.1539,VALID,222,VALID,0.591016,
2010-01-13, 02:27:05,VALID,919.316,VALID,0,VALID,97.9533,VALID,0,VALID,19.1539,VALID,222,VALID,0.947656,
2010-01-13, 02:28:05,VALID,919.284,VALID,0,VALID,97.9304,VALID,0,VALID,19.1539,VALID,222,VALID,1.04609,
2010-01-13, 02:29:05,VALID,919.267,VALID,0,VALID,97.9304,VALID,0,VALID,19.1344,VALID,222,VALID,0.466016,
2010-01-13, 02:30:05,VALID,919.281,VALID,0,VALID,97.9533,VALID,0,VALID,19.1539,VALID,222,VALID,0.871484,
2010-01-13, 02:31:05,VALID,919.258,VALID,0,VALID,97.9456,VALID,0,VALID,19.1749,VALID,162,VALID,0.84375,
2010-01-13, 02:32:05,VALID,919.212,VALID,0,VALID,97.9304,VALID,0,VALID,19.1749,VALID,107,VALID,0.983594,
2010-01-13, 02:33:05,VALID,919.211,VALID,0,VALID,97.9609,VALID,0,VALID,19.1749,VALID,96,VALID,1.02578,
2010-01-13, 02:34:05,VALID,919.184,VALID,0,VALID,97.9456,VALID,0,VALID,19.1749,VALID,85,VALID,0.850781,
2010-01-13, 02:35:05,VALID,919.16,VALID,0,VALID,97.9533,VALID,0,VALID,19.1944,VALID,85,VALID,0.472266,
2010-01-13, 02:36:05,VALID,919.145,VALID,0,VALID,97.9304,VALID,0.107441,VALID,19.1929,VALID,85,VALID,0.810547,
2010-01-13, 02:37:05,VALID,919.17,VALID,0,VALID,97.938,VALID,0,VALID,19.1734,VALID,85,VALID,1.00937,
2010-01-13, 02:38:05,VALID,919.142,VALID,0,VALID,97.938,VALID,0,VALID,19.1749,VALID,85,VALID,0.792188,
2010-01-13, 02:39:05,VALID,919.135,VALID,0,VALID,97.9456,VALID,0,VALID,19.1944,VALID,85,VALID,0.633203,
2010-01-13, 02:40:05,VALID,919.132,VALID,0,VALID,97.9609,VALID,0.107441,VALID,19.1734,VALID,85,VALID,0.933203,
2010-01-13, 02:41:05,VALID,919.151,VALID,0,VALID,97.938,VALID,0,VALID,19.1734,VALID,102,VALID,0.975391,
2010-01-13, 02:42:05,VALID,919.127,VALID,0,VALID,97.9533,VALID,0,VALID,19.1734,VALID,102,VALID,0.912891,
2010-01-13, 02:43:05,VALID,919.126,VALID,0,VALID,97.9609,VALID,0,VALID,19.1539,VALID,102,VALID,0.936328,
2010-01-13, 02:44:05,VALID,919.123,VALID,0,VALID,97.9456,VALID,0,VALID,19.1539,VALID,103,VALID,1.2957,
2010-01-13, 02:45:05,VALID,919.092,VALID,0,VALID,97.9304,VALID,0,VALID,19.1344,VALID,103,VALID,0.706641,
2010-01-13, 02:46:05,VALID,919.115,VALID,0,VALID,97.938,VALID,0,VALID,19.1749,VALID,103,VALID,0.620313,
2010-01-13, 02:47:05,VALID,919.092,VALID,0,VALID,97.9533,VALID,0,VALID,19.1539,VALID,102,VALID,1.0375,
2010-01-13, 02:48:05,VALID,919.103,VALID,0,VALID,97.9609,VALID,0,VALID,19.1554,VALID,101,VALID,0.635156,
2010-01-13, 02:49:05,VALID,919.08,VALID,0,VALID,97.9761,VALID,0,VALID,19.1539,VALID,101,VALID,0.874609,
2010-01-13, 02:50:05,VALID,919.09,VALID,0,VALID,97.9533,VALID,0,VALID,19.1344,VALID,101,VALID,0.905078,
2010-01-13, 02:51:05,VALID,919.076,VALID,0,VALID,97.9533,VALID,0,VALID,19.1749,VALID,101,VALID,0.548828,
2010-01-13, 02:52:05,VALID,919.057,VALID,0,VALID,97.938,VALID,0.107441,VALID,19.1539,VALID,101,VALID,0.810547,
2010-01-13, 02:53:05,VALID,919.041,VALID,0,VALID,97.938,VALID,0,VALID,19.1554,VALID,102,VALID,0.551172,
2010-01-13, 02:54:05,VALID,919.062,VALID,0,VALID,97.938,VALID,0,VALID,19.1539,VALID,136,VALID,0.904688,
2010-01-13, 02:55:05,VALID,919.045,VALID,0,VALID,97.938,VALID,0,VALID,19.1554,VALID,136,VALID,0.653516,
2010-01-13, 02:56:05,VALID,919.041,VALID,0.2,VALID,97.938,VALID,0,VALID,19.1344,VALID,136,VALID,0.700391,
2010-01-13, 02:57:05,VALID,919.05,VALID,0,VALID,97.938,VALID,0,VALID,19.1749,VALID,136,VALID,0.382031,
2010-01-13, 02:58:05,VALID,919.052,VALID,0,VALID,97.9609,VALID,0,VALID,19.1344,VALID,136,VALID,0.635938,
2010-01-13, 02:59:05,VALID,919.074,VALID,0,VALID,97.9456,VALID,0,VALID,19.1554,VALID,136,VALID,0.995703,
2010-01-13, 03:00:05,VALID,919.013,VALID,0,VALID,97.938,VALID,0,VALID,19.1554,VALID,136,VALID,0.989844,
2010-01-13, 03:01:05,VALID,919.006,VALID,0,VALID,97.9533,VALID,0,VALID,19.1539,VALID,136,VALID,0.622266,
2010-01-13, 03:02:05,VALID,918.992,VALID,0,VALID,97.9609,VALID,0,VALID,19.1344,VALID,136,VALID,0.595312,
2010-01-13, 03:03:05,VALID,918.977,VALID,0,VALID,97.9456,VALID,0,VALID,19.1149,VALID,136,VALID,0.51875,
2010-01-13, 03:04:05,VALID,918.979,VALID,0,VALID,97.9685,VALID,0.107441,VALID,19.1359,VALID,136,VALID,0.721094,
2010-01-13, 03:05:05,VALID,918.963,VALID,0.2,VALID,97.9761,VALID,0,VALID,19.1149,VALID,136,VALID,1.02422,
2010-01-13, 03:06:05,VALID,918.954,VALID,0,VALID,97.9456,VALID,0,VALID,19.1149,VALID,136,VALID,0.495703,
2010-01-13, 03:07:05,VALID,918.94,VALID,0,VALID,97.9533,VALID,0,VALID,19.1149,VALID,136,VALID,0.489844,
2010-01-13, 03:08:05,VALID,918.926,VALID,0,VALID,97.9609,VALID,0,VALID,19.1359,VALID,136,VALID,0.163281,
2010-01-13, 03:09:05,VALID,918.908,VALID,0,VALID,97.9685,VALID,0,VALID,19.1164,VALID,136,VALID,0.517187,
2010-01-13, 03:10:05,VALID,918.904,VALID,0,VALID,97.9761,VALID,0,VALID,19.1149,VALID,136,VALID,0.508594,
2010-01-13, 03:11:05,VALID,918.93,VALID,0,VALID,97.9533,VALID,0,VALID,19.1164,VALID,136,VALID,0.525391,
2010-01-13, 03:12:05,VALID,918.878,VALID,0,VALID,97.9456,VALID,0,VALID,19.0954,VALID,136,VALID,0.406641,
2010-01-13, 03:13:05,VALID,918.905,VALID,0,VALID,97.9609,VALID,0,VALID,19.0954,VALID,136,VALID,0.966797,
2010-01-13, 03:14:05,VALID,918.877,VALID,0,VALID,97.9685,VALID,0,VALID,19.0759,VALID,136,VALID,0.586328,
2010-01-13, 03:15:05,VALID,918.873,VALID,0,VALID,97.9456,VALID,0,VALID,19.0774,VALID,135,VALID,0.990625,
2010-01-13, 03:16:05,VALID,918.814,VALID,0,VALID,97.9609,VALID,0,VALID,19.0774,VALID,135,VALID,0.930469,
2010-01-13, 03:17:05,VALID,918.815,VALID,0,VALID,97.9685,VALID,0.107441,VALID,19.0564,VALID,135,VALID,0.799609,
2010-01-13, 03:18:05,VALID,918.806,VALID,0.2,VALID,97.9761,VALID,0,VALID,19.0564,VALID,135,VALID,0.799219,
2010-01-13, 03:19:05,VALID,918.794,VALID,0,VALID,97.9533,VALID,0,VALID,19.0564,VALID,135,VALID,0.758984,
2010-01-13, 03:20:05,VALID,918.756,VALID,0,VALID,97.9609,VALID,0,VALID,19.0384,VALID,135,VALID,0.895703,
2010-01-13, 03:21:05,VALID,918.743,VALID,0,VALID,97.9761,VALID,0.107441,VALID,19.0579,VALID,133,VALID,1.0668,
2010-01-13, 03:22:05,VALID,918.727,VALID,0,VALID,97.9838,VALID,0,VALID,19.0175,VALID,133,VALID,0.860937,
2010-01-13, 03:23:05,VALID,918.702,VALID,0,VALID,97.9685,VALID,0,VALID,19.0579,VALID,132,VALID,0.958984,
2010-01-13, 03:24:05,VALID,918.709,VALID,0,VALID,97.9609,VALID,0,VALID,19.0579,VALID,132,VALID,0.869922,
2010-01-13, 03:25:05,VALID,918.706,VALID,0,VALID,97.9914,VALID,0,VALID,19.0175,VALID,132,VALID,0.963281,
2010-01-13, 03:26:05,VALID,918.688,VALID,0,VALID,97.9685,VALID,0,VALID,19.0369,VALID,132,VALID,0.991406,
2010-01-13, 03:27:05,VALID,918.687,VALID,0,VALID,97.9609,VALID,0,VALID,19.0175,VALID,132,VALID,0.921094,
2010-01-13, 03:28:04,VALID,918.651,VALID,0,VALID,97.9761,VALID,0,VALID,19.0175,VALID,132,VALID,0.69375,
2010-01-13, 03:29:04,VALID,918.612,VALID,0,VALID,97.9761,VALID,0,VALID,19.0189,VALID,132,VALID,0.888281,
2010-01-13, 03:30:04,VALID,918.634,VALID,0,VALID,97.9914,VALID,0,VALID,19.0175,VALID,131,VALID,0.838672,
2010-01-13, 03:31:04,VALID,918.625,VALID,0,VALID,97.9914,VALID,0,VALID,18.998,VALID,131,VALID,1.00469,
2010-01-13, 03:32:04,VALID,918.589,VALID,0,VALID,97.9838,VALID,0,VALID,19.0189,VALID,131,VALID,0.642969,
2010-01-13, 03:33:04,VALID,918.551,VALID,0,VALID,97.999,VALID,0,VALID,18.998,VALID,131,VALID,0.779688,
2010-01-13, 03:34:04,VALID,918.532,VALID,0,VALID,97.9761,VALID,0,VALID,19.0189,VALID,131,VALID,0.720703,
2010-01-13, 03:35:04,VALID,918.542,VALID,0,VALID,97.9838,VALID,0,VALID,18.9994,VALID,131,VALID,0.55625,
2010-01-13, 03:36:04,VALID,918.528,VALID,0,VALID,97.999,VALID,0,VALID,18.9785,VALID,131,VALID,0.766406,
2010-01-13, 03:37:04,VALID,918.561,VALID,0,VALID,97.9685,VALID,0,VALID,18.9785,VALID,131,VALID,0.680469,
2010-01-13, 03:38:04,VALID,918.508,VALID,0,VALID,97.9685,VALID,0.107441,VALID,18.9785,VALID,131,VALID,0.855078,
2010-01-13, 03:39:04,VALID,918.54,VALID,0,VALID,97.9838,VALID,0,VALID,18.959,VALID,131,VALID,1.11211,
2010-01-13, 03:40:04,VALID,918.561,VALID,0,VALID,97.9761,VALID,0,VALID,18.9799,VALID,131,VALID,0.541797,
2010-01-13, 03:41:04,VALID,918.556,VALID,0,VALID,97.9761,VALID,0,VALID,18.959,VALID,131,VALID,0.730859,
2010-01-13, 03:42:04,VALID,918.563,VALID,0,VALID,97.9761,VALID,0,VALID,18.959,VALID,131,VALID,0.00546875,
2010-01-13, 03:43:04,VALID,918.532,VALID,0,VALID,97.9838,VALID,0.107441,VALID,18.959,VALID,131,VALID,0.245312,
2010-01-13, 03:44:04,VALID,918.535,VALID,0,VALID,97.9761,VALID,0,VALID,18.9395,VALID,131,VALID,0.324219,